Weather in Montemor-o-Novo

Portugal     38°38′55″N   8°12′49″W
temp.,
°C
wind,
m/s
gust,
m/s
humid.,
%
clouds,
%
prec.,
mm/h
press.,
hPa
HPBL,
m
2 december, thu
thu200:00+9nw31194100 0.2 1021565
03:00+9nw4129197 0.3 1019887
06:00+10nnw61589100 1.9 10171436
09:00+10nnw512831 0.1 1019854
12:00+12n79580 0.1 10201126
15:00+14nnw57454 0.0 10191351
18:00+9nnw411630 0.0 1022416
21:00+7nnw311770 0.0 1024414
3 december, fri
fri300:00+6n22810 0.0 102533
03:00+5nnw22870 0.0 102516
06:00+4nne22890 0.0 102520
09:00+6nnw11720 0.0 102779
12:00+12nnw22480 0.0 1026536
15:00+14nnw34450 0.0 1025749
18:00+9nnw22690 0.0 102610
21:00+7nw22870 0.0 102816
4 december, sat
sat400:00+7nnw22941 0.0 102817
03:00+7w11964 0.0 102710
06:00+7wsw119843 0.0 102710
09:00+10sw259653 0.0 1028146
12:00+14w41093100 0.1 1027655
15:00+17nnw57634 0.3 10261070
18:00+10nw410800 0.3 1028282
21:00+8nnw412952 0.0 1029514
5 december, sun
sun500:00+9nnw614780 0.0 1030723
03:00+7nnw311810 0.0 1029374
06:00+6n313875 0.0 1030471
09:00+8nnw211790 0.0 1030373
12:00+14nnw69535 0.0 10291244
15:00+15nnw69549 0.0 10271293
18:00+10nnw5117740 0.0 1028700
21:00+9nnw413845 0.0 1028704
6 december, mon
mon600:00+9nnw413899 0.0 1028697
03:00+7nnw310955 0.0 1028348
06:00+6n24965 0.0 102867
09:00+8n138753 0.0 1029120
12:00+14ne34548 0.0 1028742
15:00+15ne344470 0.0 10251062
18:00+9ne22645 0.0 102615
21:00+8e22703 0.0 102628